Location: Alfortville
(48.8058°N, 2.4204°E)
Time: 04:09:53
(UTC+00:00)

USA 229 DEB - Pass Details

Date: 31 May 2022
Orbit: 934 x 1278 km, 63.4° (Epoch: 24 May)

Event Time Altitude Azimuth Distance (km) Brightness Sun altitude
Rises 20:30:51 0° 310° (NW) 3,855 9.2 -6.7°
Reaches altitude 10° 20:33:47 10° 321° (NW) 2,953 7.8 -7.0°
Maximum altitude 20:40:02 32° 23° (NNE) 1,867 5.3 -7.7°
Drops below altitude 10° 20:46:43 10° 85° (E) 3,164 5.8 -8.5°
Sets 20:49:56 0° 95° (E) 4,169 6.4 -8.8°
